Starlink 30393

operational
NORAD ID: 57866 Int'l Des: 2023-144 Owner: SPXS Country: US Constellation: starlink
LEOCIRCULAR

About Starlink 30393

Description loading...

Live Position

Loading 3D Globe...

Upcoming Passes

Altitude History

Altitude vs Time

uPlot chart will show altitude changes over time

Two-Line Element Set

1 57866U 23144C 25306.17838621 -.00001491 00000-0 -95367-4 0 9999
2 57866 43.0051 259.9946 0001073 271.7221 88.3498 15.02520416118392
Epoch: Nov 2, 2025 • Age: 26 hours

Current Status

Altitude 562.9 km
Velocity 7.59 km/s
Sub-Earth Point 42.50°N, 140.08°W
Launch Date Sep 16, 2023
Age 2.1 years
Type internet

Technical Details

Classification Payload
Mass 730.00 kg
Dry Mass 700.00 kg
Total Mass 730.00 kg
Length 0.30 m
Diameter 4.10 m
Span 29.00 m
Shape Box + pan
Manufacturer SPXS
Bus Type Starlink V2M
Phase Status In Orbit
Owner/State SPXS/US

Large Constellations

Loading constellations...